This demonstration page uses our WeatherBlox Daily Observations layout. Learn more.

Left ArrowRight Arrow

38.80484, -77.04692

Hourly Observations for November 28, 2020

Temp ( °F °C ) Dew Point ( °F °C ) Humidity (%) Winds ( mph kmh ) Pressure ( in mb ) Visibility ( mi km ) Precip ( " mm )
12:52 am 00:52 Partly Cloudy 52 11.1 47 8.3 83 83 Calm 30.01 1016 10 16.0934 0 0
1:52 am 01:52 Partly Cloudy 50 10 46 7.8 86 86 Calm 30.01 1016 10 16.0934 0 0
2:52 am 02:52 Mostly Cloudy 49 9.4 46 7.8 90 90 Calm 30.01 1016 10 16.0934 0 0
3:52 am 03:52 Cloudy 50 10 46 7.8 86 86 Calm 30.01 1016 10 16.0934 0 0
4:52 am 04:52 Partly Cloudy 49 9.4 46 7.8 90 90 SW 3 6 30.02 1017 10 16.0934 0 0
5:52 am 05:52 Partly Cloudy 47 8.3 44 6.7 90 90 SW 3 6 30.02 1017 10 16.0934 0 0
6:52 am 06:52 Mostly Clear 46 7.8 43 6.1 89 89 Calm 30.03 1017 10 16.0934 0 0
7:52 am 07:52 Partly Cloudy 47 8.3 44 6.7 90 90 Calm 30.05 1018 9 14.48406 0 0
8:52 am 08:52 Mostly Sunny 51 10.6 46 7.8 83 83 SSE 5 7 30.06 1018 10 16.0934 0 0
9:52 am 09:52 Mostly Sunny 55 12.8 43 6.1 64 64 VRB 5 7 30.08 1019 10 16.0934 0 0
10:52 am 10:52 Partly Cloudy 58 14.4 39 3.9 50 50 NW 14 22 30.07 1018 10 16.0934 0 0
11:52 am 11:52 Partly Cloudy 60 15.6 39 3.9 46 46 W 13 20 30.06 1018 10 16.0934 0 0
12:52 pm 12:52 Mostly Sunny 59 15 37 2.8 44 44 WNW 15 24 30.06 1018 10 16.0934 0 0
1:52 pm 13:52 Mostly Sunny 61 16.1 36 2.2 39 39 NW 9 15 30.04 1017 10 16.0934 0 0
2:52 pm 14:52 Mostly Sunny 60 15.6 34 1.1 38 38 W 15 24 30.05 1018 10 16.0934 0 0
3:52 pm 15:52 Mostly Sunny 59 15 32 0 36 36 NW 12 19 30.06 1018 10 16.0934 0 0
4:52 pm 16:52 Mostly Clear 57 13.9 28 -2.2 33 33 WNW 8 13 30.09 1019 10 16.0934 0 0
5:52 pm 17:52 Clear 55 12.8 29 -1.7 37 37 NW 6 9 30.1 1019 10 16.0934 0 0
6:52 pm 18:52 Clear 53 11.7 29 -1.7 40 40 NNW 8 13 30.11 1020 10 16.0934 0 0
7:52 pm 19:52 Clear 51 10.6 32 0 48 48 NW 5 7 30.12 1020 10 16.0934 0 0
8:52 pm 20:52 Clear 47 8.3 30 -1.1 52 52 NNW 7 11 30.13 1020 10 16.0934 0 0
9:52 pm 21:52 Clear 49 9.4 26 -3.3 41 41 NNW 7 11 30.15 1021 10 16.0934 0 0
10:52 pm 22:52 Clear 48 8.9 25 -3.9 41 41 NNW 7 11 30.16 1021 10 16.0934 0 0
11:52 pm 23:52 Clear 48 8.9 24 -4.4 39 39 NNW 3 6 30.17 1022 10 16.0934 0 0

Powered by AerisWeather